Cody, WY

12:07 AM MDT on March 24, 2017 (GMT -0600)
Yellowstone Regional

Weather History for KCOD - October, 2010

Change the Weather History Date:

Friday, October 15, 2010

  Actual Average Record
Temperature  
Mean Temperature 62 °F -  
Max Temperature 71 °F 57 °F 81 °F (1945)
Min Temperature 53 °F 33 °F 20 °F (1952)
Degree Days  
Heating Degree Days 3    
Growing Degree Days 12 (Base 50)    
Moisture  
Dew Point 22 °F    
Average Humidity 19    
Maximum Humidity 26    
Minimum Humidity 16    
Precipitation  
Precipitation 0.00 in - - ()
Sea Level Pressure  
Sea Level Pressure 30.07 in    
Wind  
Wind Speed 12 mph (WSW)    
Max Wind Speed 20 mph    
Max Gust Speed 37 mph    
Visibility 10 miles    
Events      
Averages and records for this station are not official NWS values.
T = Trace of Precipitation, MM = Missing Value Source: NWS Daily Summary

Daily Weather History Graph

Daily Weather History Graph

Search for Another Location

Airport or City:

Trip Planner

Search our weather history database for the weather conditions in past years. The results will help you decide how hot, cold, wet, or windy it might be!

Date:

Astronomy

Oct. 15, 2010 Rise Set
Actual Time 7:31 AM MDT 6:31 PM MDT
Civil Twilight 7:01 AM MDT 7:00 PM MDT
Nautical Twilight 6:28 AM MDT 7:34 PM MDT
Astronomical Twilight 5:54 AM MDT 8:08 PM MDT
Moon 3:11 PM MDT (10/15) 12:10 AM MDT (10/15)
Length of Visible Light 11h 58m
Length of Day
11h 00m
First Quarter, 58% of the Moon is Illuminated
Oct 15
First Quarter
Oct 22
Full
Oct 30
Last Quarter
Nov 5
New
Nov 13
First Quarter

Hourly Weather History & Observations

Time (MDT) Temp. Windchill Dew Point Humidity Pressure Visibility Wind Dir Wind Speed Gust Speed Precip Events Conditions
12:15 AM 64.4 °F - 24.8 °F 22% 30.10 in 10.0 mi West 12.7 mph 27.6 mph N/A   Clear
12:35 AM 64.4 °F - 24.8 °F 22% 30.09 in 10.0 mi WSW 11.5 mph 23.0 mph N/A   Clear
12:55 AM 64.4 °F - 23.0 °F 21% 30.08 in 10.0 mi West 17.3 mph 25.3 mph N/A   Clear
1:15 AM 64.4 °F - 21.2 °F 19% 30.08 in 10.0 mi WSW 12.7 mph 24.2 mph N/A   Clear
1:35 AM 64.4 °F - 21.2 °F 19% 30.08 in 10.0 mi WSW 10.4 mph 18.4 mph N/A   Clear
1:55 AM 66.2 °F - 21.2 °F 18% 30.07 in 10.0 mi WSW 15.0 mph 21.9 mph N/A   Clear
2:15 AM 66.2 °F - 19.4 °F 17% 30.07 in 10.0 mi West 13.8 mph 24.2 mph N/A   Clear
2:35 AM 64.4 °F - 17.6 °F 16% 30.07 in 10.0 mi WSW 10.4 mph 19.6 mph N/A   Clear
2:55 AM 64.4 °F - 17.6 °F 16% 30.07 in 10.0 mi West 16.1 mph 24.2 mph N/A   Clear
3:15 AM 64.4 °F - 17.6 °F 16% 30.07 in 10.0 mi West 19.6 mph 26.5 mph N/A   Clear
3:35 AM 64.4 °F - 17.6 °F 16% 30.07 in 10.0 mi West 13.8 mph 25.3 mph N/A   Clear
3:55 AM 64.4 °F - 17.6 °F 16% 30.07 in 10.0 mi SW 16.1 mph 23.0 mph N/A   Clear
4:15 AM 64.4 °F - 17.6 °F 16% 30.07 in 10.0 mi WSW 15.0 mph 26.5 mph N/A   Clear
4:35 AM 64.4 °F - 19.4 °F 18% 30.08 in 10.0 mi WSW 12.7 mph 24.2 mph N/A   Clear
4:55 AM 64.4 °F - 19.4 °F 18% 30.08 in 10.0 mi WSW 10.4 mph 18.4 mph N/A   Clear
5:15 AM 64.4 °F - 19.4 °F 18% 30.08 in 10.0 mi SW 6.9 mph 18.4 mph N/A   Clear
5:35 AM 64.4 °F - 17.6 °F 16% 30.08 in 10.0 mi West 6.9 mph 23.0 mph N/A   Clear
5:55 AM 64.4 °F - 17.6 °F 16% 30.09 in 10.0 mi WSW 6.9 mph - N/A   Clear
6:15 AM 64.4 °F - 17.6 °F 16% 30.08 in 10.0 mi WSW 19.6 mph 25.3 mph N/A   Clear
6:35 AM 62.6 °F - 17.6 °F 18% 30.08 in 10.0 mi SW 19.6 mph 36.8 mph N/A   Clear
6:55 AM 62.6 °F - 17.6 °F 18% 30.09 in 10.0 mi SW 15.0 mph 21.9 mph N/A   Clear
7:15 AM 62.6 °F - 19.4 °F 19% 30.09 in 10.0 mi WSW 15.0 mph 20.7 mph N/A   Clear
7:35 AM 60.8 °F - 19.4 °F 20% 30.10 in 10.0 mi West 12.7 mph 18.4 mph N/A   Clear
7:55 AM 53.6 °F - 17.6 °F 24% 30.11 in 10.0 mi NNW 8.1 mph - N/A   Clear
8:15 AM 57.2 °F - 21.2 °F 25% 30.11 in 10.0 mi WNW 11.5 mph 16.1 mph N/A   Clear
8:35 AM 60.8 °F - 21.2 °F 22% 30.11 in 10.0 mi North 9.2 mph - N/A   Clear
8:55 AM 60.8 °F - 21.2 °F 22% 30.11 in 10.0 mi WSW 10.4 mph - N/A   Clear
9:15 AM 64.4 °F - 21.2 °F 19% 30.11 in 10.0 mi WSW 6.9 mph - N/A   Clear
9:35 AM 64.4 °F - 21.2 °F 19% 30.11 in 10.0 mi SW 4.6 mph - N/A   Clear
9:55 AM 66.2 °F - 21.2 °F 18% 30.10 in 10.0 mi SW 10.4 mph - N/A   Clear
10:15 AM 66.2 °F - 21.2 °F 18% 30.10 in 10.0 mi SW 9.2 mph - N/A   Clear
10:35 AM 68.0 °F - 21.2 °F 17% 30.09 in 10.0 mi SSW 8.1 mph - N/A   Clear
10:55 AM 68.0 °F - 21.2 °F 17% 30.09 in 10.0 mi SW 10.4 mph - N/A   Clear
11:15 AM 69.8 °F - 23.0 °F 17% 30.09 in 10.0 mi South 8.1 mph - N/A   Clear
11:35 AM 69.8 °F - 23.0 °F 17% 30.08 in 10.0 mi West 6.9 mph - N/A   Clear
11:55 AM 68.0 °F - 24.8 °F 20% 30.07 in 10.0 mi South 9.2 mph - N/A   Clear
12:15 PM 68.0 °F - 24.8 °F 20% 30.07 in 10.0 mi SW 3.5 mph - N/A   Clear
12:35 PM 69.8 °F - 24.8 °F 18% 30.06 in 10.0 mi WSW 10.4 mph - N/A   Clear
12:55 PM 71.6 °F - 24.8 °F 17% 30.05 in 10.0 mi West 8.1 mph - N/A   Clear
1:15 PM 71.6 °F - 24.8 °F 17% 30.04 in 10.0 mi West 8.1 mph 16.1 mph N/A   Clear
1:35 PM 71.6 °F - 24.8 °F 17% 30.03 in 10.0 mi West 12.7 mph 19.6 mph N/A   Mostly Cloudy
1:55 PM 69.8 °F - 24.8 °F 18% 30.02 in 10.0 mi WSW 11.5 mph 18.4 mph N/A   Scattered Clouds
2:15 PM 71.6 °F - 26.6 °F 19% 30.02 in 10.0 mi West 9.2 mph 16.1 mph N/A   Mostly Cloudy
2:35 PM 71.6 °F - 24.8 °F 17% 30.02 in 10.0 mi WSW 12.7 mph 16.1 mph N/A   Mostly Cloudy
2:55 PM 71.6 °F - 24.8 °F 17% 30.01 in 10.0 mi WSW 12.7 mph 16.1 mph N/A   Mostly Cloudy
3:15 PM 69.8 °F - 24.8 °F 18% 30.01 in 10.0 mi WSW 12.7 mph 17.3 mph N/A   Mostly Cloudy
3:35 PM 71.6 °F - 26.6 °F 19% 30.02 in 10.0 mi West 15.0 mph 20.7 mph N/A   Overcast
3:55 PM 69.8 °F - 26.6 °F 20% 30.02 in 10.0 mi West 11.5 mph 19.6 mph N/A   Overcast
4:15 PM 69.8 °F - 26.6 °F 20% 30.03 in 10.0 mi West 16.1 mph 24.2 mph N/A   Overcast
4:35 PM 68.0 °F - 26.6 °F 21% 30.04 in 10.0 mi WNW 10.4 mph 25.3 mph N/A   Mostly Cloudy
4:55 PM 66.2 °F - 28.4 °F 24% 30.04 in 10.0 mi West 12.7 mph 24.2 mph N/A   Partly Cloudy
5:15 PM 66.2 °F - 28.4 °F 24% 30.05 in 10.0 mi West 12.7 mph 23.0 mph N/A   Clear
5:35 PM 66.2 °F - 28.4 °F 24% 30.06 in 10.0 mi West 10.4 mph 18.4 mph N/A   Clear
5:55 PM 64.4 °F - 28.4 °F 26% 30.06 in 10.0 mi West 9.2 mph 16.1 mph N/A   Mostly Cloudy
6:15 PM 64.4 °F - 28.4 °F 26% 30.07 in 10.0 mi West 18.4 mph 27.6 mph N/A   Mostly Cloudy
6:35 PM 64.4 °F - 28.4 °F 26% 30.08 in 10.0 mi West 16.1 mph 23.0 mph N/A   Mostly Cloudy
6:55 PM 62.6 °F - 28.4 °F 27% 30.08 in 10.0 mi West 6.9 mph - N/A   Partly Cloudy
7:15 PM 60.8 °F - 30.2 °F 31% 30.08 in 10.0 mi West 12.7 mph - N/A   Clear
7:35 PM 62.6 °F - 30.2 °F 30% 30.08 in 10.0 mi West 15.0 mph 23.0 mph N/A   Clear
7:55 PM 62.6 °F - 28.4 °F 27% 30.09 in 10.0 mi West 9.2 mph 17.3 mph N/A   Clear
8:15 PM 62.6 °F - 28.4 °F 27% 30.11 in 10.0 mi West 6.9 mph 17.3 mph N/A   Clear
8:35 PM 59.0 °F - 28.4 °F 31% 30.11 in 10.0 mi NE 6.9 mph - N/A   Clear
8:55 PM 60.8 °F - 30.2 °F 31% 30.11 in 10.0 mi Calm Calm - N/A   Clear
9:15 PM 57.2 °F - 30.2 °F 36% 30.12 in 10.0 mi SE 3.5 mph - N/A   Clear
9:35 PM 57.2 °F - 33.8 °F 41% 30.11 in 10.0 mi WSW 12.7 mph 19.6 mph N/A   Clear
9:55 PM 60.8 °F - 32.0 °F 34% 30.12 in 10.0 mi WSW 12.7 mph 19.6 mph N/A   Clear
10:15 PM 59.0 °F - 32.0 °F 36% 30.13 in 10.0 mi West 4.6 mph - N/A   Clear
10:35 PM 57.2 °F - 33.8 °F 41% 30.14 in 10.0 mi NNW 12.7 mph 16.1 mph N/A   Clear
10:55 PM 53.6 °F - 24.8 °F 33% 30.19 in 10.0 mi NW 13.8 mph 20.7 mph N/A   Mostly Cloudy
11:15 PM 51.8 °F - 24.8 °F 35% 30.20 in 10.0 mi NW 13.8 mph 21.9 mph N/A   Mostly Cloudy
11:35 PM 48.2 °F - 24.8 °F 40% 30.21 in 10.0 mi NW 13.8 mph 21.9 mph N/A   Mostly Cloudy
11:55 PM 46.4 °F 40.4 °F 24.8 °F 43% 30.22 in 10.0 mi NW 13.8 mph 23.0 mph N/A   Partly Cloudy